Voltar ao catálogo

FENGYUN 1C DEB

LostPO
NORAD 46445·DEBRIS·🇨🇳 China

Lançado May 10, 1999 de Taiyuan Satellite Launch Center

Loading…

Próximas Passagens (próximas 24 horas)

TLE

ObsoletoSource: Space-Track

Época: Apr 8, 2024, 14:35 UTC

1 46445U 99025EZA 24099.60796937  .00004808  00000-0  28525-2 0  9993
2 46445  98.0172  37.3827 0109085 155.7294 204.9070 14.04987918714801

Acompanhe FENGYUN 1C DEB em tempo real com AllMySat

Download on the App Store